Probability
0 0 0 0 0 0 0 0 0 3 10 6 16 16 26 35 48 55 74 90 90 84 90 87 87 81 71 65 61 61 68 68 71 68 71 71 65 65 65 65 58 58 65 61
0 0 0 0 0 0 0 0 0 0 6 13 23 29 39 42 55 61 77 90 87 90 87 87 87 77 77 61 61 68 68 65 61 68 68 65 65 65 68 71 68 65 61 61
0 0 0 0 0 0 0 0 0 3 10 19 29 39 55 68 65 55 68 81 87 87 84 81 84 81 74 71 68 68 65 65 61 58 58 58 52 58 65 71 68 68 65 58
0 0 0 0 0 0 0 0 6 13 19 19 29 45 55 58 68 68 68 74 84 84 81 81 84 81 84 71 61 68 58 55 61 55 55 55 61 68 65 61 65 55 52 48
0 0 0 3 3 6 3 6 13 19 26 23 32 26 48 55 61 68 68 74 77 81 84 84 81 77 77 74 71 71 61 65 55 61 61 61 61 65 61 58 52 48 48 45
0 0 0 0 0 0 3 6 13 16 13 16 19 42 45 48 45 48 58 58 74 77 81 77 74 74 74 68 65 61 58 55 58 61 61 58 58 55 55 58 55 48 39 35
0 0 0 0 0 0 0 10 23 29 23 29 39 45 42 39 35 35 45 55 58 65 61 68 68 65 61 61 55 52 52 45 48 48 55 58 55 58 58 48 39 32 32 35
0 0 0 3 6 10 29 32 29 26 23 32 32 19 39 39 35 35 42 45 45 52 48 52 58 58 52 52 48 48 45 42 42 35 32 35 52 45 45 39 39 39 32 32
3 3 3 6 6 13 19 23 19 16 13 26 26 26 32 26 19 23 23 23 32 39 39 39 45 48 42 39 42 42 42 42 35 35 35 29 29 29 32 32 26 16 16 16
3 3 3 3 3 10 10 10 10 16 16 23 23 23 26 19 10 16 19 19 26 29 26 29 29 26 29 26 29 29 29 26 26 23 23 23 23 16 10 6 3 10 13 6
3 3 6 6 3 3 13 10 10 10 13 16 19 16 19 16 13 16 16 19 19 13 13 13 13 13 13 19 19 19 19 23 23 19 16 16 6 3 6 3 3 3 3 3
3 6 3 3 0 3 3 6 10 10 6 6 6 6 3 0 6 6 6 10 10 6 6 6 6 6 10 10 10 10 10 10 10 13 13 6 0 3 0 0 0 0 0 0
0 0 3 3 3 3 3 3 3 3 3 6 3 0 0 0 0 0 0 3 3 0 0 0 3 3 3 3 6 6 6 6 10 10 3 0 0 0 0 0 0 0 0 0
3 3 3 3 0 3 0 0 0 0 0 0 0 0 0 0 0 0 0 0 0 0 0 0 0 0 0 0 0 0 3 0 3 0 0 0 0 0 0 0 0 0 0 0
3 3 0 6 0 0 0 0 0 0 0 0 0 0 0 0 0 0 0 0 0 0 0 0 0 0 0 0 0 0 0 0 0 0 0 0 0 0 0 0 0 0 0 0
3 6 3 0 0 3 0 0 0 0 0 0 0 0 0 0 0 0 0 0 0 0 0 0 0 0 0 0 0 0 0 0 0 0 0 0 0 0 0 0 0 0 0 0
3 6 0 0 0 0 0 0 0 0 0 0 0 0 0 0 0 0 0 0 0 0 0 0 0 0 0 0 0 0 0 0 0 0 0 0 0 0 0 0 0 0 0 0
0 3 0 0 0 0 0 0 0 0 0 0 0 0 0 0 0 0 0 0 0 0 0 0 0 0 0 0 0 0 0 0 0 0 0 0 0 0 0 0 0 0 0 0
3 3 0 0 0 0 0 0 0 0 0 0 0 0 0 0 0 0 0 0 0 0 0 0 0 0 0 0 0 0 0 0 0 0 0 0 0 0 0 0 0 0 0 0
3 3 0 0 0 0 0 0 0 0 0 0 0 0 0 0 0 0 0 0 0 0 0 0 0 0 0 0 0 0 0 0 0 0 0 0 0 0 0 0 0 0 0 0
0 0 0 0 0 0 0 0 0 0 0 0 0 0 0 0 0 0 0 0 0 0 0 0 0 0 0 0 0 0 0 0 0 0 0 0 0 0 0 0 0 0 0 0
0 0 0 0 0 0 0 0 0 0 0 0 0 0 0 0 0 0 0 0 0 0 0 0 0 0 0 0 0 0 0 0 0 0 0 0 0 0 0 0 0 0 0 0
0 0 0 0 0 0 0 0 0 0 0 0 0 0 0 0 0 0 0 0 0 0 0 0 0 0 0 0 0 0 0 0 0 0 0 0 0 0 0 0 0 0 0 0
0 0 0 0 0 0 0 0 0 0 0 0 0 0 0 0 0 0 0 0 0 0 0 0 0 0 0 0 0 0 0 0 0 0 0 0 0 0 0 0 0 0 0 0
0 0 0 0 0 0 0 0 0 0 0 0 0 0 0 0 0 0 0 0 0 0 0 0 0 0 0 0 0 0 0 0 0 0 0 0 0 0 0 0 0 0 0 0
0 0 0 0 0 0 0 0 0 0 0 0 0 0 0 0 0 0 0 0 0 0 0 0 0 0 0 0 0 0 0 0 0 0 0 0 0 0 0 0 0 0 0 0
0 0 0 0 0 0 0 0 0 0 0 0 0 0 0 0 0 0 0 0 0 0 0 0 0 0 0 0 0 0 0 0 0 0 0 0 0 0 0 0 0 0 0 0
Height
5803 5804 5806 5808 5810 5813 5816 5818 5820 5821 5820 5819 5818 5816 5816 5818 5820 5821 5822 5822 5823 5823 5822 5822 5821 5821 5820 5820 5819 5819 5820 5820 5821 5822 5822 5824 5826 5829 5831 5834 5836 5838 5839 5841
5797 5799 5801 5802 5805 5807 5810 5812 5815 5815 5815 5814 5813 5812 5813 5814 5816 5817 5818 5819 5820 5820 5820 5820 5819 5819 5819 5819 5819 5818 5818 5819 5819 5820 5821 5823 5825 5827 5828 5830 5832 5833 5834 5836
5791 5794 5795 5797 5800 5802 5805 5806 5808 5809 5809 5808 5807 5808 5808 5810 5812 5813 5814 5815 5816 5816 5816 5817 5817 5817 5817 5817 5817 5817 5817 5818 5818 5818 5819 5820 5822 5824 5825 5826 5828 5829 5830 5831
5785 5788 5789 5794 5794 5796 5798 5799 5800 5801 5802 5802 5802 5803 5803 5805 5807 5809 5811 5811 5812 5812 5813 5814 5814 5815 5815 5815 5815 5816 5816 5816 5816 5817 5817 5818 5820 5821 5822 5823 5823 5824 5825 5826
5778 5780 5783 5787 5787 5789 5791 5791 5792 5793 5795 5795 5796 5796 5797 5799 5802 5804 5805 5806 5808 5808 5809 5810 5811 5811 5812 5812 5813 5813 5813 5814 5814 5814 5814 5815 5816 5816 5817 5817 5818 5818 5819 5820
5770 5773 5776 5779 5780 5781 5784 5783 5784 5786 5787 5789 5790 5791 5792 5794 5795 5798 5799 5801 5803 5804 5804 5806 5806 5807 5808 5808 5809 5809 5810 5810 5810 5810 5811 5811 5812 5812 5812 5813 5813 5813 5813 5813
5763 5766 5768 5769 5770 5773 5776 5776 5776 5777 5779 5781 5782 5784 5786 5787 5789 5791 5793 5795 5797 5798 5799 5801 5802 5802 5803 5804 5805 5805 5805 5806 5806 5806 5806 5806 5807 5807 5807 5807 5807 5807 5807 5806
5756 5759 5762 5761 5763 5766 5767 5768 5769 5770 5772 5774 5774 5776 5778 5781 5783 5785 5787 5789 5791 5792 5794 5796 5797 5798 5799 5799 5799 5799 5800 5801 5801 5801 5801 5801 5801 5801 5801 5801 5801 5800 5800 5799
5749 5752 5752 5754 5756 5758 5759 5761 5762 5763 5764 5766 5767 5768 5771 5774 5776 5778 5780 5782 5784 5786 5788 5790 5791 5792 5793 5794 5794 5795 5795 5795 5795 5795 5795 5795 5794 5794 5794 5794 5793 5793 5792 5791
5741 5744 5745 5747 5748 5750 5752 5753 5754 5756 5757 5759 5760 5762 5764 5766 5769 5771 5773 5775 5777 5779 5781 5783 5784 5786 5787 5787 5788 5789 5789 5788 5788 5789 5788 5788 5787 5787 5787 5786 5786 5785 5784 5783
5734 5737 5738 5740 5741 5743 5744 5745 5747 5748 5750 5751 5753 5755 5757 5760 5762 5764 5767 5769 5771 5773 5775 5776 5777 5779 5780 5781 5781 5781 5782 5781 5781 5781 5781 5781 5780 5780 5779 5778 5778 5777 5775 5774
5729 5730 5732 5733 5734 5736 5737 5738 5740 5741 5743 5745 5747 5748 5751 5753 5755 5758 5760 5762 5764 5766 5768 5770 5771 5772 5773 5774 5774 5774 5774 5774 5774 5774 5773 5773 5772 5772 5771 5770 5769 5767 5766 5765
5723 5724 5725 5726 5727 5729 5730 5731 5733 5735 5737 5738 5740 5742 5744 5747 5749 5752 5754 5756 5758 5760 5762 5763 5764 5765 5766 5766 5767 5767 5767 5767 5767 5766 5765 5765 5764 5763 5762 5761 5759 5758 5756 5755
5717 5719 5720 5721 5721 5722 5724 5725 5727 5729 5731 5732 5734 5736 5739 5741 5743 5746 5748 5750 5752 5753 5755 5756 5757 5758 5759 5759 5759 5759 5759 5759 5758 5758 5757 5756 5755 5754 5753 5752 5750 5749 5747 5745
5713 5714 5715 5716 5716 5717 5718 5720 5722 5724 5725 5727 5729 5731 5733 5736 5738 5740 5742 5744 5746 5747 5748 5750 5751 5751 5752 5752 5752 5751 5751 5751 5750 5750 5749 5748 5747 5746 5744 5743 5741 5739 5737 5735
5709 5710 5712 5712 5713 5714 5715 5716 5718 5719 5721 5722 5724 5726 5728 5731 5733 5735 5736 5738 5740 5741 5742 5743 5744 5745 5745 5745 5745 5744 5744 5743 5742 5742 5741 5739 5738 5737 5735 5733 5731 5728 5725 5722
5706 5707 5708 5709 5710 5711 5712 5714 5715 5717 5718 5720 5721 5723 5725 5727 5729 5731 5732 5733 5735 5735 5736 5737 5738 5738 5738 5738 5738 5737 5737 5736 5735 5734 5733 5731 5730 5727 5725 5723 5720 5717 5714 5710
5703 5705 5706 5707 5708 5709 5711 5712 5713 5715 5717 5718 5719 5721 5723 5724 5726 5727 5728 5729 5730 5731 5731 5732 5732 5732 5732 5732 5731 5731 5730 5729 5728 5727 5725 5723 5720 5718 5715 5712 5708 5705 5701 5697
5701 5702 5703 5704 5706 5707 5709 5710 5712 5713 5715 5716 5718 5719 5721 5722 5723 5724 5725 5726 5726 5726 5727 5727 5727 5727 5727 5726 5725 5724 5723 5722 5720 5718 5716 5713 5711 5707 5704 5700 5696 5692 5688 5683
5698 5700 5701 5703 5704 5706 5708 5709 5711 5712 5713 5715 5716 5717 5718 5719 5720 5721 5722 5722 5722 5722 5722 5722 5722 5722 5721 5720 5719 5717 5716 5714 5711 5709 5706 5703 5700 5696 5692 5688 5684 5679 5675 5670
5696 5698 5699 5701 5703 5704 5706 5708 5709 5710 5711 5713 5714 5715 5715 5716 5717 5717 5718 5718 5718 5718 5718 5718 5717 5716 5715 5713 5712 5710 5708 5705 5702 5699 5696 5692 5688 5684 5680 5675 5670 5666 5661 5656
5695 5696 5698 5700 5701 5703 5704 5705 5707 5708 5709 5711 5711 5712 5712 5713 5713 5714 5714 5714 5714 5713 5712 5712 5711 5709 5708 5706 5704 5701 5698 5695 5692 5689 5685 5681 5676 5672 5667 5662 5657 5653 5648 5643
5693 5695 5697 5698 5700 5701 5702 5703 5704 5706 5707 5708 5708 5709 5709 5710 5710 5710 5710 5709 5708 5708 5706 5705 5703 5701 5699 5697 5694 5691 5688 5685 5681 5677 5673 5669 5664 5660 5655 5651 5646 5641 5636 5632
5692 5694 5695 5697 5698 5699 5700 5701 5702 5703 5704 5704 5705 5705 5705 5705 5705 5705 5704 5703 5702 5701 5699 5697 5695 5693 5690 5688 5685 5681 5678 5674 5671 5666 5662 5658 5653 5649 5645 5640 5635 5631 5626 5621
5690 5692 5693 5695 5696 5697 5698 5699 5699 5700 5700 5701 5701 5701 5701 5700 5700 5699 5698 5696 5695 5693 5692 5689 5687 5684 5681 5678 5675 5671 5668 5664 5660 5656 5652 5648 5643 5639 5635 5630 5626 5621 5617 5613
5688 5690 5691 5692 5693 5694 5695 5695 5696 5696 5696 5696 5696 5696 5695 5694 5693 5692 5691 5689 5687 5685 5683 5681 5678 5675 5672 5669 5665 5662 5658 5655 5651 5647 5643 5639 5635 5630 5626 5622 5618 5614 5609 5605
5686 5687 5688 5689 5690 5690 5691 5691 5692 5692 5691 5691 5691 5690 5689 5688 5686 5685 5683 5681 5679 5677 5675 5672 5669 5666 5663 5660 5656 5653 5649 5646 5642 5639 5635 5631 5627 5623 5619 5615 5611 5607 5603 5599
Wind_Speed
25 24 23 23 23 22 22 22 21 21 23 23 22 20 16 15 17 17 17 15 14 13 11 10 9 8 7 7 6 6 6 7 7 9 10 11 12 14 15 17 18 19 20 20
27 25 25 22 18 19 22 22 23 24 25 25 25 22 19 19 20 19 18 17 16 14 13 12 10 9 9 8 7 7 7 8 9 9 11 12 13 14 16 17 18 19 20 21
27 25 25 22 20 19 21 22 23 25 27 29 28 25 23 22 22 22 20 19 17 16 15 14 12 11 10 10 9 8 8 8 9 10 11 13 14 15 16 17 18 19 21 22
29 28 27 23 23 24 23 24 26 28 29 29 30 30 29 26 26 25 24 21 20 19 17 16 15 13 13 12 12 11 11 11 11 12 13 13 15 17 18 20 21 21 23 24
28 28 28 28 28 27 27 29 30 30 31 31 30 31 31 28 27 26 25 23 21 20 19 18 17 16 15 15 14 14 13 13 13 14 15 16 16 16 17 18 20 21 22 23
28 27 27 27 28 27 28 31 31 31 31 31 31 31 32 30 28 27 27 25 24 22 21 20 19 18 17 17 16 16 16 16 15 15 16 17 18 18 19 19 20 21 23 24
27 27 28 29 28 27 28 30 29 30 30 31 32 32 32 30 29 27 27 26 25 24 23 22 21 20 19 19 19 18 18 19 19 19 18 19 20 20 21 21 22 24 25 26
27 28 29 30 30 30 30 30 30 30 30 30 31 31 31 31 30 29 28 27 27 26 25 23 22 21 21 20 20 20 20 21 21 21 21 21 22 23 23 24 25 26 27 27
28 29 30 30 30 30 30 30 30 30 29 29 30 31 31 30 30 29 28 28 28 28 26 25 25 24 23 23 22 22 22 23 23 24 24 24 25 25 24 24 25 26 28 30
26 27 28 29 29 30 30 30 30 30 29 29 30 30 30 29 30 30 29 29 28 28 27 27 26 26 26 25 25 25 25 25 25 26 26 25 25 26 26 27 28 29 30 31
26 27 28 28 28 28 28 29 28 28 28 29 29 29 29 29 29 29 29 28 28 28 28 28 28 28 27 28 27 27 27 28 28 28 29 28 29 30 30 30 30 31 31 32
25 26 26 26 26 26 26 26 27 27 27 28 27 27 27 28 28 28 28 28 28 28 29 30 30 30 30 30 29 29 29 29 29 30 30 30 30 31 31 32 32 33 34 35
24 23 23 23 24 24 24 24 24 24 24 25 25 26 26 26 26 26 26 27 28 29 29 30 30 30 29 29 29 30 29 29 29 30 30 30 31 32 32 33 33 34 34 35
21 21 21 21 21 22 22 21 21 22 23 24 25 25 25 26 26 25 26 26 26 27 27 28 28 28 28 29 30 30 30 30 31 31 31 31 31 32 32 32 33 33 34 35
18 18 17 17 17 17 17 18 19 19 20 21 21 22 24 25 25 25 25 25 25 26 26 26 26 27 28 29 30 29 30 30 29 28 28 29 30 31 32 33 34 35 37 39
15 15 15 15 14 14 14 15 16 16 17 17 18 20 21 21 21 21 22 22 23 24 23 24 25 25 26 26 27 27 27 27 27 27 27 28 30 31 33 35 37 38 40 42
12 12 13 13 12 11 12 13 13 13 14 14 14 14 15 16 16 16 17 18 19 20 21 21 22 21 22 23 23 23 24 24 25 27 28 29 31 33 35 37 40 42 43 45
12 11 10 10 10 10 10 11 11 11 11 10 10 10 10 10 10 11 13 14 15 16 17 18 17 18 19 20 21 22 23 24 26 27 30 32 34 36 38 40 41 43 44 45
13 12 11 10 10 10 10 9 8 8 8 8 8 9 10 10 10 11 11 13 14 14 14 15 17 18 18 19 21 22 24 26 28 30 32 34 36 37 39 41 42 43 45 46
12 12 11 11 10 8 8 8 8 8 8 8 9 10 11 11 12 12 13 13 13 13 14 16 17 18 20 21 23 24 26 28 30 32 34 36 37 39 40 42 43 45 46 46
11 11 11 10 9 9 8 8 8 9 9 9 9 9 9 10 11 12 12 13 14 15 17 18 19 21 22 24 26 27 29 31 33 34 36 37 39 40 42 43 44 44 45 44
10 10 10 10 9 9 9 9 8 9 9 9 9 10 10 11 12 13 13 15 16 18 19 21 22 24 25 27 28 30 32 33 35 36 38 39 40 41 42 42 42 42 42 42
10 10 11 10 10 10 10 10 9 9 9 10 10 10 11 12 13 14 16 17 19 20 22 23 25 26 28 29 31 33 34 35 37 38 39 39 40 40 40 40 39 39 39 39
10 10 10 10 10 10 10 9 9 10 10 11 11 12 13 15 16 17 18 20 21 22 24 26 27 29 30 32 33 34 35 36 36 37 37 38 38 37 37 37 37 36 36 35
10 10 10 9 10 11 11 11 11 12 13 14 15 16 17 18 19 20 21 23 24 26 27 28 30 31 32 33 33 33 34 34 35 35 35 35 35 34 34 34 33 32 32 31
11 11 10 10 11 12 13 14 14 15 15 16 17 18 19 20 21 22 24 25 26 27 29 30 30 31 32 32 32 32 32 32 32 32 32 32 32 32 31 31 30 29 28 27
11 12 12 12 13 14 15 16 16 17 18 19 20 21 22 23 23 24 25 26 27 28 29 29 30 30 30 30 30 30 30 30 30 29 29 29 29 28 28 28 27 26 25 23
Wind_Direction
222 228 233 235 230 229 233 235 244 252 260 268 271 272 265 268 273 274 277 278 281 283 285 283 279 281 282 284 273 254 243 240 242 242 236 230 229 230 230 232 235 239 241 244
226 231 238 238 236 235 235 238 243 248 254 257 260 260 259 265 269 272 274 274 276 277 279 280 277 274 272 276 275 268 257 253 251 251 244 236 235 237 239 241 243 247 248 251
227 233 240 243 236 239 243 243 246 250 252 255 256 256 255 259 264 267 267 269 273 272 273 274 275 272 268 270 273 269 266 264 257 254 251 243 243 246 248 248 249 251 253 257
230 231 236 239 239 239 242 245 245 247 249 252 257 258 258 259 260 263 264 266 269 269 270 270 270 269 266 265 266 268 270 269 266 262 259 257 254 254 256 256 257 259 261 263
233 236 239 240 242 242 247 249 248 249 250 251 254 257 258 257 258 259 261 262 264 265 266 268 268 266 265 264 263 263 265 266 268 267 265 260 259 261 263 264 263 263 265 267
235 237 238 241 244 245 248 251 250 251 252 251 253 255 256 258 256 255 256 257 258 260 260 265 267 266 266 265 264 264 265 265 266 268 268 264 263 265 267 268 270 271 270 271
236 238 242 244 243 246 248 251 253 253 253 251 252 254 254 255 255 253 253 253 254 256 258 260 262 263 264 265 264 264 266 266 268 270 271 269 266 267 270 271 273 274 273 275
237 239 242 245 247 248 251 254 256 256 254 253 252 253 252 252 253 253 251 251 252 253 254 256 260 262 264 267 267 267 269 269 269 269 271 271 267 269 271 272 275 276 276 278
239 241 244 247 250 251 253 255 256 257 256 254 253 252 251 250 250 251 252 251 251 252 253 255 258 262 263 265 267 268 270 271 270 271 273 274 273 272 274 276 279 281 280 281
245 246 248 250 252 253 254 254 254 254 253 253 252 250 249 248 248 248 250 250 250 251 251 253 256 260 262 263 266 269 271 271 271 273 274 275 275 276 278 279 281 283 283 284
248 249 252 254 253 254 253 253 252 252 251 251 252 251 248 248 248 248 249 249 250 250 250 252 254 257 262 263 265 268 270 272 272 274 276 275 275 276 278 280 282 282 284 285
251 253 253 253 254 253 253 253 251 250 250 249 250 250 248 247 247 247 249 249 249 251 252 254 256 258 261 264 266 269 270 271 273 274 275 277 278 279 280 281 282 283 284 285
251 253 254 255 254 252 251 251 251 251 249 248 247 247 245 245 247 249 249 249 249 251 253 256 259 260 262 264 267 269 270 272 275 278 278 278 279 280 281 283 284 285 286 287
251 251 252 253 253 252 250 249 250 250 248 247 246 245 245 245 245 247 248 249 250 252 254 257 260 262 265 268 269 270 271 272 275 276 277 278 279 280 282 284 286 288 289 290
249 249 249 250 252 250 246 244 246 245 242 243 245 244 242 241 242 244 247 249 251 253 257 259 262 265 266 270 271 271 272 274 275 276 278 280 283 285 287 289 290 291 291 292
248 246 247 250 249 247 244 241 240 238 236 238 241 238 237 239 241 246 248 248 251 254 257 261 264 268 271 272 273 275 277 276 276 279 283 286 288 290 291 291 292 293 294 295
240 241 244 245 243 241 237 232 227 228 228 226 226 227 229 232 236 241 244 247 251 255 259 264 267 270 275 278 279 280 281 284 285 287 290 292 292 292 293 293 294 294 296 297
232 232 233 233 231 228 224 223 223 224 228 227 227 228 230 235 243 250 256 258 261 263 266 270 274 278 281 283 285 287 290 291 292 293 294 294 293 293 293 295 296 297 299 299
227 224 224 224 226 223 222 219 221 227 234 236 240 245 246 251 259 259 262 267 271 274 278 281 283 285 288 291 293 294 294 294 294 295 295 295 296 297 297 298 299 299 300 300
225 225 225 225 225 226 227 225 233 237 239 244 250 249 249 255 262 266 270 273 275 279 283 287 290 290 290 293 294 295 295 295 296 297 298 299 299 299 300 300 300 300 301 301
221 222 224 224 224 227 225 229 235 235 236 241 246 250 257 263 268 274 279 281 283 287 290 291 291 292 293 295 296 296 297 298 299 300 301 301 301 301 301 302 302 301 302 302
215 218 219 219 220 221 225 227 229 236 244 253 261 266 274 278 279 282 284 286 289 291 292 292 294 295 296 297 298 300 301 301 302 302 303 303 303 303 303 303 303 303 303 304
209 213 220 225 227 233 235 239 247 255 261 269 274 277 281 284 285 286 286 287 289 291 293 295 298 299 300 301 302 303 303 303 304 304 304 305 305 305 304 304 304 305 305 306
215 220 225 229 234 236 243 252 259 263 268 273 277 281 285 287 288 288 290 292 293 295 297 299 301 302 303 304 304 304 305 305 305 306 306 306 306 306 305 306 306 307 307 306
219 223 229 236 241 244 250 259 265 269 274 279 283 286 287 288 290 291 293 295 297 299 300 301 303 304 304 304 305 305 305 305 306 307 308 308 307 307 307 308 309 309 309 307
226 232 239 244 249 253 258 262 265 269 275 281 285 288 289 291 293 295 297 298 299 300 301 303 304 304 304 305 305 305 305 306 307 308 308 309 310 310 310 310 311 312 312 311
238 242 247 252 257 262 264 265 269 274 279 284 288 290 291 293 295 298 299 300 301 302 303 304 305 305 306 306 306 306 306 307 308 309 309 310 311 312 312 313 314 315 315 315